Location: Seattle
(47.6064°N, 122.3308°W)
Time: 16:36:37
(UTC-08:00)

IRIDIUM 126 - Visible Passes

Search period start: 06 December 2023 00:00
Search period end: 16 December 2023 00:00
Orbit: 776 x 779 km, 86.4° (Epoch: 06 December)

Date Brightness Start Highest point End Pass type
(mag) Time Alt. Az. Time Alt. Az. Time Alt. Az.
07 Dec ? 06:55:22 10° NNE 06:59:43 26° ENE 07:04:02 10° SE visible
08 Dec ? 06:22:44 10° NNE 06:25:48 15° ENE 06:28:51 10° ESE visible
10 Dec ? 06:55:11 10° NNE 06:59:58 35° ENE 07:04:43 10° SE visible
11 Dec ? 06:22:12 10° NNE 06:26:09 21° ENE 06:30:04 10° ESE visible
12 Dec ? 05:50:00 10° NE 05:52:11 12° ENE 05:54:21 10° E visible
13 Dec ? 06:55:05 10° N 07:00:09 48° E 07:05:12 10° SSE visible
14 Dec ? 06:21:54 10° NNE 06:26:25 29° ENE 06:30:54 10° SE visible
15 Dec ? 05:49:07 10° NNE 05:52:33 17° ENE 05:55:56 10° ESE visible
